Le nostre stazioni meteo in Italia

Pubblicità
Il mio iltempo24.it
Venezia/Tessera, Italia (16105): Temperatura & dewpoint: 13.05.2019 21:00:00 - 19.05.2019 21:00:00 (CEST)Venezia/Tessera, Italia (16105): velocità del vento: 13.05.2019 21:00:00 - 19.05.2019 21:00:00 (CEST)Venezia/Tessera, Italia (16105): direzione del vento: 13.05.2019 21:00:00 - 19.05.2019 21:00:00 (CEST)Venezia/Tessera, Italia (16105): reduced air pressure: 13.05.2019 21:00:00 - 19.05.2019 21:00:00 (CEST)Venezia/Tessera, Italia (16105): visibility: 13.05.2019 21:00:00 - 19.05.2019 21:00:00 (CEST)Venezia/Tessera, Italia (16105): precipitazioni: 13.05.2019 21:00:00 - 19.05.2019 21:00:00 (CEST)
Data & Tempo tt [°C] td [°C] ff [km/h] ff [kn] dd ppp [hPa] vv [km] rr [mm]
19.05.2019 21:00:00 15,0 12,0 11 6 E - 10 -
19.05.2019 20:00:00 14,9 12,5 13 7 ESE 1004,6 10 -
19.05.2019 19:00:00 16,0 13,0 11 6 E - 10 -
19.05.2019 18:00:00 16,0 14,0 13 7 E - 10 -
19.05.2019 17:00:00 16,2 14,2 13 7 E 1004,7 10 0,0
19.05.2019 16:00:00 16,0 14,0 15 8 E - 10 -
19.05.2019 15:00:00 16,0 14,0 15 8 E - 10 -
19.05.2019 14:00:00 15,3 14,2 16 9 ENE 1005,0 10 -
19.05.2019 13:00:00 14,0 14,0 15 8 E - 9 -
19.05.2019 12:00:00 15,0 14,0 18 10 E - 8 -
19.05.2019 11:00:00 14,6 13,3 22 12 E 1005,1 10 0,0
19.05.2019 10:00:00 15,0 13,0 24 13 ENE - 10 -
19.05.2019 09:00:00 14,0 13,0 21 11 ENE - 10 -
19.05.2019 08:00:00 13,5 13,0 18 10 NE 1005,0 10 -
19.05.2019 07:00:00 13,0 13,0 16 9 NE - 8 -
19.05.2019 06:00:00 14,0 13,0 15 8 ENE - 10 -
19.05.2019 05:00:00 14,4 13,3 15 8 E 1005,4 10 0,0
19.05.2019 04:00:00 15,0 13,0 11 6 E - 10 -
19.05.2019 03:00:00 15,0 13,0 21 11 ESE - 10 -
19.05.2019 02:00:00 15,1 13,4 16 9 ESE 1006,3 10 -
19.05.2019 01:00:00 15,0 13,0 16 9 E - 10 -
19.05.2019 00:00:00 15,0 14,0 24 13 ESE - 10 -
18.05.2019 23:00:00 15,3 14,2 24 13 SE 1006,9 10 0,0
18.05.2019 22:00:00 16,0 14,0 22 12 ESE - 10 -
18.05.2019 21:00:00 15,0 14,0 22 12 E - 10 -
18.05.2019 20:00:00 14,7 13,9 18 10 E 1006,6 10 -
18.05.2019 19:00:00 14,0 13,0 24 13 NE - 10 -
18.05.2019 18:00:00 14,0 13,0 22 12 NE - 2,5 -
18.05.2019 17:00:00 14,8 13,3 16 9 NE 1006,7 10 0,0
18.05.2019 16:00:00 14,0 12,0 16 9 NNE - 10 -
18.05.2019 15:00:00 15,0 13,0 16 9 NE - 8 -
18.05.2019 14:00:00 14,6 12,7 13 7 NNE 1007,5 7 -
18.05.2019 13:00:00 14,0 12,0 15 8 NE - 10 -
18.05.2019 12:00:00 14,0 12,0 16 9 NE - 8 -
18.05.2019 11:00:00 14,2 11,3 18 10 NE 1007,8 10 0,0
18.05.2019 10:00:00 14,0 12,0 16 9 NNE - 10 -
18.05.2019 09:00:00 13,0 11,0 16 9 NNE - 10 -
18.05.2019 08:00:00 13,0 11,4 16 9 NE 1007,7 8 -
18.05.2019 07:00:00 13,0 11,0 16 9 NNE - 10 -
18.05.2019 06:00:00 13,0 10,0 18 10 N - 10 -
18.05.2019 05:00:00 12,7 10,6 9 5 NNE 1008,0 10 0,0
18.05.2019 04:00:00 - - - - - - - -
18.05.2019 03:00:00 14,0 9,0 2 1 NO - 10 -
18.05.2019 02:00:00 13,5 9,2 8 4 NE 1009,1 - -
18.05.2019 01:00:00 14,0 9,0 9 5 NNE - 10 -
18.05.2019 00:00:00 14,0 11,0 8 4 NE - 10 -
17.05.2019 23:00:00 14,2 10,8 8 4 E 1009,9 10 0,0
17.05.2019 22:00:00 14,0 10,0 9 5 ESE - 10 -
17.05.2019 21:00:00 15,0 10,0 9 5 SE - 10 -
17.05.2019 20:00:00 15,3 9,6 9 5 SSE 1009,3 10 -
17.05.2019 19:00:00 16,0 10,0 9 5 SSE - 10 -
17.05.2019 18:00:00 17,0 9,0 11 6 SSE - 10 -
17.05.2019 17:00:00 17,4 9,4 8 4 SSE 1009,8 10 0,0
17.05.2019 16:00:00 17,0 10,0 9 5 SSE - 10 -
17.05.2019 15:00:00 17,0 10,0 9 5 SSE - 10 -
17.05.2019 14:00:00 17,0 8,1 15 8 SE 1010,7 10 -
17.05.2019 13:00:00 16,0 9,0 15 8 SE - 10 -
17.05.2019 12:00:00 17,0 8,0 13 7 E - 10 -
17.05.2019 11:00:00 16,0 8,4 15 8 E 1010,9 10 0,0
17.05.2019 10:00:00 15,0 8,0 16 9 E - 10 -
17.05.2019 09:00:00 15,0 9,0 13 7 ENE - 10 -
17.05.2019 08:00:00 13,1 9,6 4 2 - 1011,4 10 -
17.05.2019 07:00:00 13,0 9,0 11 6 E - 10 -
17.05.2019 06:00:00 11,0 9,0 8 4 NE - 10 -
17.05.2019 05:00:00 11,1 9,7 8 4 ENE 1010,6 10 0,0
17.05.2019 04:00:00 12,0 10,0 8 4 ENE - 10 -
17.05.2019 03:00:00 11,0 9,0 5 3 NE - 10 -
17.05.2019 02:00:00 12,0 8,6 5 3 NE 1011,4 10 -
17.05.2019 01:00:00 13,0 9,0 4 2 N - 10 -
17.05.2019 00:00:00 13,0 9,0 8 4 SSO - 10 -
16.05.2019 23:00:00 13,6 8,8 8 4 S 1011,8 10 0,0
16.05.2019 22:00:00 14,0 8,0 9 5 SSO - 10 -
16.05.2019 21:00:00 15,0 9,0 8 4 S - 10 -
16.05.2019 20:00:00 15,1 7,9 8 4 S 1010,9 10 -
16.05.2019 19:00:00 17,0 7,0 8 4 S - 10 -
16.05.2019 18:00:00 17,0 8,0 13 7 SSE - 10 -
16.05.2019 17:00:00 17,2 7,9 11 6 SSE 1011,0 10 0,0
16.05.2019 16:00:00 17,0 7,0 8 4 S - 10 -
16.05.2019 15:00:00 17,0 8,0 11 6 SSE - 10 -
16.05.2019 14:00:00 16,9 7,1 13 7 E 1012,4 10 -
16.05.2019 13:00:00 16,0 9,0 13 7 ESE - 10 -
16.05.2019 12:00:00 16,0 8,0 13 7 E - 10 -
16.05.2019 11:00:00 14,8 7,2 9 5 NE 1013,4 10 0,0
16.05.2019 10:00:00 14,0 8,0 9 5 ENE - 10 -
16.05.2019 09:00:00 14,0 8,0 11 6 NE - 10 -
16.05.2019 08:00:00 12,9 8,4 11 6 NE 1013,5 10 -
16.05.2019 07:00:00 11,0 8,0 9 5 NE - 10 -
16.05.2019 06:00:00 12,0 8,0 8 4 N - 10 -
16.05.2019 05:00:00 10,9 8,1 5 3 N 1013,4 10 0,0
16.05.2019 04:00:00 11,0 8,0 8 4 NNE - 10 -
16.05.2019 03:00:00 12,0 8,0 5 3 NNE - 10 -
16.05.2019 02:00:00 12,0 8,5 8 4 ENE 1014,5 10 -
16.05.2019 01:00:00 13,0 8,0 8 4 NE - 10 -
16.05.2019 00:00:00 13,0 8,0 9 5 NE - 10 -
15.05.2019 23:00:00 12,9 7,6 5 3 N 1014,8 10 0,0
15.05.2019 22:00:00 13,0 8,0 4 2 ONO - 10 -
15.05.2019 21:00:00 23,0 20,0 2 1 SSE - 10 -
15.05.2019 20:00:00 13,5 7,3 8 4 ESE 1014,0 10 -
15.05.2019 19:00:00 15,0 7,0 13 7 ESE - 10 -
15.05.2019 18:00:00 15,0 7,0 5 3 E - 10 -
15.05.2019 17:00:00 15,2 7,3 9 5 NE 1013,9 10 0,0
15.05.2019 16:00:00 14,0 9,0 11 6 O - 10 -
15.05.2019 15:00:00 12,0 7,0 13 7 ONO - 10 -
15.05.2019 14:00:00 11,4 7,3 15 8 NO 1014,9 10 -
15.05.2019 13:00:00 10,0 7,0 9 5 ONO - 10 -
15.05.2019 12:00:00 10,0 6,0 8 4 NO - 10 -
15.05.2019 11:00:00 9,2 5,9 9 5 NNO 1015,4 10 0,0
15.05.2019 10:00:00 9,0 6,0 5 3 O - 10 -
15.05.2019 09:00:00 8,0 6,0 8 4 OSO - 10 -
15.05.2019 08:00:00 8,1 5,7 8 4 OSO 1014,8 10 -
15.05.2019 07:00:00 8,0 6,0 4 2 - - 10 -
15.05.2019 06:00:00 9,0 6,0 9 5 NNO - 10 -
15.05.2019 05:00:00 9,0 5,5 8 4 O 1015,1 10 0,0
15.05.2019 04:00:00 9,0 6,0 5 3 NNO - 10 -
15.05.2019 03:00:00 10,0 6,0 8 4 N - 10 -
15.05.2019 02:00:00 9,8 5,5 9 5 ONO 1016,8 10 -
15.05.2019 01:00:00 11,0 4,0 4 2 - - 10 -
15.05.2019 00:00:00 11,0 4,0 9 5 S - 10 -
14.05.2019 23:00:00 10,8 3,7 5 3 S 1018,5 10 0,0
14.05.2019 22:00:00 11,0 4,0 16 9 SE - 10 -
14.05.2019 21:00:00 12,0 4,0 13 7 ESE - 10 -
14.05.2019 20:00:00 11,1 4,3 8 4 ESE 1019,1 10 -
14.05.2019 19:00:00 13,0 4,0 8 4 SSE - 10 -
14.05.2019 18:00:00 13,0 3,0 11 6 SE - 10 -
14.05.2019 17:00:00 12,3 3,3 15 8 ESE 1019,2 10 0,0
14.05.2019 16:00:00 13,0 4,0 26 14 ESE - 10 -
14.05.2019 15:00:00 13,0 3,0 34 18 ESE - 10 -
14.05.2019 14:00:00 14,7 4,0 37 20 E 1018,8 10 -
14.05.2019 13:00:00 14,0 3,0 34 18 ESE - 10 -
14.05.2019 12:00:00 14,0 5,0 28 15 E - 10 -
14.05.2019 11:00:00 13,6 4,7 21 11 ESE 1019,5 10 0,0
14.05.2019 10:00:00 14,0 7,0 18 10 E - 10 -
14.05.2019 09:00:00 13,0 7,0 13 7 E - 10 -
14.05.2019 08:00:00 13,3 6,6 13 7 E 1019,2 10 -
14.05.2019 07:00:00 13,0 9,0 4 2 - - 10 -
14.05.2019 06:00:00 13,0 8,0 5 3 E - 10 -
14.05.2019 05:00:00 13,0 8,4 2 1 - 1018,9 10 0,0
14.05.2019 04:00:00 14,0 9,0 8 4 ESE - 10 -
14.05.2019 03:00:00 14,0 9,0 8 4 ESE - 10 -
14.05.2019 02:00:00 13,8 8,2 8 4 E 1019,8 10 -
14.05.2019 01:00:00 15,0 7,0 4 2 - - 10 -
14.05.2019 00:00:00 14,0 8,0 2 1 - - 10 -
13.05.2019 23:00:00 14,3 8,5 8 4 NNO 1020,0 10 0,0
13.05.2019 22:00:00 14,0 9,0 9 5 N - 10 -
13.05.2019 21:00:00 14,0 11,0 5 3 O - 10 -

tt = Temperatura
td = dewpoint
ff = velocità del vento
dd = direzione del vento
ppp = reduced air pressure
vv = visibility
rr = precipitazioni

Stazioni seguenti

WeatherPro
AMSI
MeteoEarth